| time (UTC) | temp F | wind direction | speed MPH | gust MPH | rain 1hr in | rain 24hr in | rain mn in | humidity % | barometer mb |
| 20260506211503 | 44 | 338 | 5.0 | 8.0 | 0.00 | 0.65 | 0.65 | 98 | 1010.0 |
| 20260506211001 | 44 | 339 | 3.0 | 4.0 | 0.00 | 0.65 | 0.65 | 98 | 1009.8 |
| 20260506210456 | 44 | 10 | 3.0 | 5.0 | 0.02 | 0.65 | 0.65 | 98 | 1009.9 |
| 20260506205954 | 44 | 13 | 6.0 | 6.0 | 0.02 | 0.65 | 0.65 | 98 | 1009.4 |
| 20260506205450 | 44 | 10 | 6.0 | 8.0 | 0.00 | 0.64 | 0.64 | 98 | 1009.6 |
| 20260506204946 | 44 | 8 | 4.0 | 6.0 | 0.00 | 0.64 | 0.64 | 98 | 1009.6 |
| 20260506204444 | 44 | 19 | 5.0 | 5.0 | 0.02 | 0.64 | 0.64 | 98 | 1009.7 |
| 20260506203941 | 44 | 21 | 2.0 | 5.0 | 0.05 | 0.64 | 0.64 | 98 | 1009.8 |
| 20260506203438 | 44 | 10 | 4.0 | 6.0 | 0.07 | 0.64 | 0.64 | 98 | 1009.6 |
| 20260506202935 | 44 | 7 | 3.0 | 5.0 | 0.05 | 0.63 | 0.63 | 98 | 1009.6 |
| 20260506202432 | 44 | 18 | 3.0 | 7.0 | 0.02 | 0.63 | 0.63 | 98 | 1009.7 |
| 20260506201928 | 44 | 16 | 2.0 | 5.0 | 0.00 | 0.62 | 0.62 | 98 | 1009.7 |
| 20260506201426 | 44 | 28 | 3.0 | 5.0 | 0.00 | 0.62 | 0.62 | 98 | 1009.6 |
| 20260506200923 | 44 | 35 | 3.0 | 6.0 | 0.02 | 0.62 | 0.62 | 98 | 1009.7 |
| 20260506200419 | 44 | 313 | 1.0 | 6.0 | 0.02 | 0.62 | 0.62 | 98 | 1009.8 |
| 20260506195915 | 44 | 9 | 3.0 | 6.0 | 0.00 | 0.62 | 0.62 | 98 | 1009.7 |
| 20260506195413 | 44 | 6 | 2.0 | 4.0 | 0.00 | 0.62 | 0.62 | 98 | 1009.8 |
| 20260506194909 | 44 | 350 | 1.0 | 4.0 | 0.00 | 0.62 | 0.62 | 98 | 1009.7 |
| 20260506194406 | 44 | 353 | 4.0 | 5.0 | 0.00 | 0.62 | 0.62 | 98 | 1009.6 |
| 20260506193903 | 44 | 0 | 3.0 | 6.0 | 0.00 | 0.62 | 0.62 | 98 | 1009.8 |
| 20260506193400 | 44 | 352 | 3.0 | 7.0 | 0.02 | 0.62 | 0.62 | 98 | 1009.6 |
| 20260506192857 | 44 | 24 | 2.0 | 5.0 | 0.05 | 0.62 | 0.62 | 98 | 1009.5 |
| 20260506192354 | 44 | 303 | 4.0 | 8.0 | 0.02 | 0.61 | 0.61 | 98 | 1009.8 |
| 20260506191851 | 44 | 306 | 3.0 | 7.0 | 0.02 | 0.61 | 0.61 | 98 | 1009.5 |
| 20260506191347 | 44 | 320 | 2.0 | 4.0 | 0.05 | 0.61 | 0.61 | 98 | 1009.8 |
| 20260506190844 | 44 | 355 | 3.0 | 4.0 | 0.05 | 0.61 | 0.61 | 98 | 1009.6 |
| 20260506190340 | 44 | 48 | 3.0 | 4.0 | 0.05 | 0.60 | 0.60 | 98 | 1009.5 |
| 20260506185837 | 44 | 355 | 3.0 | 4.0 | 0.07 | 0.60 | 0.60 | 98 | 1009.6 |
| 20260506185334 | 44 | 20 | 1.0 | 5.0 | 0.07 | 0.59 | 0.59 | 98 | 1009.8 |
| 20260506184831 | 44 | 13 | 3.0 | 4.0 | 0.05 | 0.59 | 0.59 | 98 | 1009.8 |
| 20260506184328 | 44 | 5 | 4.0 | 5.0 | 0.05 | 0.58 | 0.58 | 98 | 1009.8 |
| 20260506183826 | 44 | 6 | 2.0 | 4.0 | 0.05 | 0.58 | 0.58 | 97 | 1009.7 |
| 20260506183320 | 44 | 5 | 3.0 | 6.0 | 0.05 | 0.57 | 0.57 | 98 | 1010.0 |
| 20260506182818 | 43 | 32 | 3.0 | 8.0 | 0.05 | 0.57 | 0.57 | 98 | 1009.9 |
| 20260506182315 | 43 | 19 | 2.0 | 6.0 | 0.05 | 0.57 | 0.57 | 97 | 1009.8 |
| 20260506181813 | 43 | 351 | 2.0 | 12.0 | 0.02 | 0.56 | 0.56 | 98 | 1010.0 |
| 20260506181311 | 43 | 5 | 2.0 | 6.0 | 0.02 | 0.56 | 0.56 | 98 | 1009.8 |
| 20260506180808 | 43 | 11 | 3.0 | 6.0 | 0.02 | 0.56 | 0.56 | 97 | 1010.1 |
| 20260506180303 | 43 | 0 | 4.0 | 5.0 | 0.02 | 0.56 | 0.56 | 98 | 1010.3 |
| 20260506175800 | 44 | 341 | 4.0 | 6.0 | 0.02 | 0.56 | 0.56 | 98 | 1010.0 |
| 20260506175257 | 43 | 0 | 5.0 | 6.0 | 0.05 | 0.55 | 0.55 | 97 | 1010.2 |
| 20260506174754 | 43 | 6 | 4.0 | 6.0 | 0.02 | 0.55 | 0.55 | 98 | 1010.3 |
| 20260506174252 | 43 | 1 | 3.0 | 6.0 | 0.02 | 0.54 | 0.54 | 97 | 1010.3 |
| 20260506173749 | 43 | 347 | 3.0 | 7.0 | 0.07 | 0.54 | 0.54 | 98 | 1010.6 |
| 20260506173246 | 43 | 13 | 3.0 | 6.0 | 0.09 | 0.54 | 0.54 | 98 | 1010.6 |
| 20260506172742 | 43 | 358 | 4.0 | 7.0 | 0.12 | 0.53 | 0.53 | 98 | 1010.5 |
| 20260506172239 | 43 | 320 | 4.0 | 6.0 | 0.12 | 0.52 | 0.52 | 97 | 1010.6 |
| 20260506171737 | 43 | 358 | 2.0 | 7.0 | 0.12 | 0.51 | 0.51 | 97 | 1010.6 |
| 20260506171234 | 42 | 7 | 4.0 | 7.0 | 0.12 | 0.50 | 0.50 | 97 | 1010.9 |
| 20260506170731 | 42 | 347 | 4.0 | 6.0 | 0.09 | 0.49 | 0.49 | 97 | 1010.7 |
| 20260506170228 | 42 | 322 | 3.0 | 6.0 | 0.09 | 0.48 | 0.48 | 97 | 1010.5 |
| 20260506165726 | 42 | 12 | 6.0 | 7.0 | 0.07 | 0.47 | 0.47 | 97 | 1010.3 |
| 20260506165223 | 42 | 16 | 5.0 | 7.0 | 0.05 | 0.47 | 0.47 | 97 | 1010.5 |
| 20260506164720 | 42 | 5 | 5.0 | 5.0 | 0.05 | 0.46 | 0.46 | 97 | 1010.7 |
| 20260506164217 | 43 | 15 | 4.0 | 6.0 | 0.05 | 0.46 | 0.46 | 97 | 1010.8 |
| 20260506163713 | 43 | 312 | 4.0 | 5.0 | 0.05 | 0.45 | 0.45 | 97 | 1010.6 |
| 20260506163208 | 43 | 13 | 5.0 | 5.0 | 0.05 | 0.45 | 0.45 | 97 | 1010.7 |
| 20260506162705 | 43 | 19 | 4.0 | 7.0 | 0.05 | 0.45 | 0.45 | 97 | 1010.9 |
| 20260506162202 | 43 | 9 | 4.0 | 6.0 | 0.07 | 0.44 | 0.44 | 97 | 1010.5 |
| 20260506161700 | 43 | 5 | 4.0 | 7.0 | 0.07 | 0.43 | 0.43 | 97 | 1010.8 |
| 20260506161156 | 43 | 14 | 5.0 | 11.0 | 0.12 | 0.43 | 0.43 | 97 | 1010.7 |
| 20260506160654 | 43 | 0 | 3.0 | 6.0 | 0.12 | 0.42 | 0.42 | 97 | 1010.8 |
| 20260506160150 | 43 | 17 | 8.0 | 9.0 | 0.09 | 0.41 | 0.41 | 97 | 1010.8 |
| 20260506155649 | 43 | 4 | 5.0 | 7.0 | 0.12 | 0.40 | 0.40 | 97 | 1010.8 |
| 20260506155146 | 43 | 353 | 2.0 | 9.0 | 0.12 | 0.36 | 0.36 | 97 | 1011.1 |
| 20260506153248 | 43 | 12 | 4.0 | 5.0 | 0.12 | 0.35 | 0.35 | 97 | 1011.2 |
| 20260506152745 | 43 | 0 | 4.0 | 8.0 | 0.12 | 0.35 | 0.35 | 97 | 1011.1 |
| 20260506152242 | 43 | 342 | 3.0 | 7.0 | 0.09 | 0.34 | 0.34 | 96 | 1011.3 |
| 20260506151741 | 43 | 1 | 6.0 | 7.0 | 0.12 | 0.33 | 0.33 | 96 | 1011.1 |
| 20260506151237 | 43 | 313 | 3.0 | 7.0 | 0.12 | 0.32 | 0.32 | 96 | 1011.4 |
| 20260506150734 | 43 | 352 | 4.0 | 9.0 | 0.09 | 0.31 | 0.31 | 96 | 1011.4 |
| 20260506150231 | 44 | 316 | 4.0 | 7.0 | 0.12 | 0.30 | 0.30 | 96 | 1011.2 |
| 20260506145728 | 43 | 8 | 3.0 | 6.0 | 0.09 | 0.29 | 0.29 | 96 | 1011.1 |
| 20260506145224 | 43 | 347 | 6.0 | 7.0 | 0.07 | 0.28 | 0.28 | 96 | 1011.2 |
| 20260506144722 | 44 | 348 | 3.0 | 5.0 | 0.07 | 0.28 | 0.28 | 96 | 1011.0 |
| 20260506144219 | 44 | 316 | 2.0 | 4.0 | 0.07 | 0.27 | 0.27 | 96 | 1011.0 |
| 20260506143716 | 44 | 316 | 5.0 | 7.0 | 0.07 | 0.26 | 0.26 | 96 | 1010.8 |
| 20260506143214 | 44 | 356 | 2.0 | 5.0 | 0.07 | 0.26 | 0.26 | 96 | 1011.0 |
| 20260506142712 | 44 | 357 | 1.0 | 4.0 | 0.05 | 0.25 | 0.25 | 96 | 1010.8 |
| 20260506142210 | 44 | 298 | 2.0 | 4.0 | 0.07 | 0.24 | 0.24 | 96 | 1011.1 |
| 20260506141708 | 44 | 347 | 0.0 | 4.0 | 0.05 | 0.24 | 0.24 | 96 | 1011.0 |
| 20260506141206 | 44 | 352 | 4.0 | 6.0 | 0.05 | 0.23 | 0.23 | 96 | 1010.9 |
| 20260506140703 | 44 | 356 | 3.0 | 5.0 | 0.05 | 0.23 | 0.23 | 96 | 1011.0 |
| 20260506140200 | 44 | 337 | 2.0 | 8.0 | 0.05 | 0.22 | 0.22 | 96 | 1010.9 |
| 20260506135657 | 44 | 307 | 2.0 | 5.0 | 0.05 | 0.22 | 0.22 | 96 | 1010.8 |
| 20260506135153 | 44 | 6 | 3.0 | 5.0 | 0.07 | 0.22 | 0.22 | 96 | 1010.8 |
| 20260506134650 | 45 | 1 | 5.0 | 5.0 | 0.07 | 0.21 | 0.21 | 96 | 1011.0 |
| 20260506134146 | 45 | 7 | 2.0 | 5.0 | 0.07 | 0.20 | 0.20 | 96 | 1010.9 |
| 20260506133643 | 0 | 6 | 3.0 | 4.0 | 0.07 | 0.20 | 0.20 | 1011.0 | |
| 20260506133140 | 0 | 313 | 6.0 | 10.0 | 0.05 | 0.19 | 0.19 | 1011.1 | |
| 20260506132637 | 0 | 321 | 3.0 | 11.0 | 0.05 | 0.19 | 0.19 | 1011.1 | |
| 20260506132134 | 0 | 11 | 2.0 | 7.0 | 0.05 | 0.18 | 0.18 | 1011.1 | |
| 20260506131632 | 0 | 349 | 3.0 | 5.0 | 0.05 | 0.18 | 0.18 | 1010.9 | |
| 20260506131127 | 0 | 7 | 4.0 | 5.0 | 0.05 | 0.18 | 0.18 | 1010.9 | |
| 20260506130625 | 0 | 10 | 3.0 | 4.0 | 0.07 | 0.17 | 0.17 | 1011.0 | |
| 20260506130122 | 0 | 4 | 2.0 | 6.0 | 0.07 | 0.17 | 0.17 | 1010.8 | |
| 20260506125620 | 0 | 12 | 1.0 | 10.0 | 0.05 | 0.16 | 0.16 | 1011.1 | |
| 20260506125117 | 0 | 357 | 3.0 | 7.0 | 0.05 | 0.16 | 0.16 | 1011.0 | |
| 20260506124615 | 0 | 12 | 4.0 | 10.0 | 0.07 | 0.15 | 0.15 | 1011.2 | |
| 20260506124113 | 0 | 7 | 5.0 | 6.0 | 0.07 | 0.15 | 0.15 | 1011.4 | |
| 20260506123610 | 0 | 300 | 8.0 | 9.0 | 0.07 | 0.14 | 0.14 | 1011.5 | |
| 20260506123109 | 0 | 318 | 8.0 | 8.0 | 0.09 | 0.13 | 0.13 | 1012.1 | |
| 20260506122605 | 0 | 8 | 5.0 | 15.0 | 0.12 | 0.13 | 0.13 | 1010.3 | |
| 20260506122103 | 0 | 276 | 6.0 | 15.0 | 0.07 | 0.12 | 0.12 | 1012.0 | |
| 20260506121601 | 0 | 21 | 10.0 | 17.0 | 0.05 | 0.11 | 0.11 | 1010.4 | |
| 20260506121056 | 0 | 307 | 7.0 | 15.0 | 0.05 | 0.11 | 0.11 | 1012.2 | |
| 20260506120555 | 0 | 10 | 5.0 | 8.0 | 0.05 | 0.10 | 0.10 | 1011.0 | |
| 20260506120051 | 0 | 358 | 5.0 | 5.0 | 0.05 | 0.10 | 0.10 | 1011.4 | |
| 20260506115549 | 0 | 4 | 4.0 | 6.0 | 0.05 | 0.09 | 0.09 | 1011.1 | |
| 20260506115048 | 0 | 2 | 3.0 | 6.0 | 0.05 | 0.09 | 0.09 | 1011.2 | |
| 20260506114545 | 0 | 1 | 3.0 | 5.0 | 0.02 | 0.09 | 0.09 | 1011.1 | |
| 20260506114043 | 0 | 8 | 3.0 | 6.0 | 0.00 | 0.08 | 0.08 | 1011.3 | |
| 20260506113541 | 0 | 10 | 3.0 | 5.0 | 0.00 | 0.08 | 0.08 | 1011.2 | |
| 20260506113038 | 0 | 27 | 2.0 | 4.0 | 0.00 | 0.08 | 0.08 | 1011.4 | |
| 20260506112534 | 0 | 14 | 5.0 | 6.0 | 0.00 | 0.08 | 0.08 | 1011.3 | |
| 20260506112032 | 0 | 39 | 2.0 | 5.0 | 0.02 | 0.08 | 0.08 | 1011.1 | |
| 20260506111530 | 0 | 3 | 1.0 | 5.0 | 0.02 | 0.08 | 0.08 | 1011.1 | |
| 20260506111026 | 0 | 8 | 5.0 | 6.0 | 0.00 | 0.08 | 0.08 | 1010.9 | |
| 20260506110524 | 0 | 16 | 2.0 | 14.0 | 0.00 | 0.08 | 0.08 | 1010.9 | |
| 20260506110021 | 0 | 292 | 0.0 | 6.0 | 0.00 | 0.08 | 0.08 | 1011.0 | |
| 20260506105517 | 0 | 8 | 4.0 | 6.0 | 0.02 | 0.08 | 0.08 | 1011.0 | |
| 20260506105015 | 0 | 10 | 3.0 | 12.0 | 0.02 | 0.08 | 0.08 | 1011.1 | |
| 20260506104513 | 0 | 13 | 4.0 | 7.0 | 0.00 | 0.07 | 0.07 | 1010.8 | |
| 20260506104010 | 0 | 22 | 5.0 | 6.0 | 0.00 | 0.07 | 0.07 | 1010.6 | |
| 20260506103507 | 0 | 17 | 6.0 | 9.0 | 0.02 | 0.07 | 0.07 | 1010.6 | |
| 20260506103004 | 0 | 5 | 5.0 | 8.0 | 0.02 | 0.07 | 0.07 | 1010.7 | |
| 20260506102502 | 0 | 16 | 3.0 | 9.0 | 0.00 | 0.07 | 0.07 | 1010.6 | |
| 20260506101959 | 0 | 8 | 6.0 | 7.0 | 0.00 | 0.07 | 0.07 | 1010.6 | |
| 20260506101455 | 0 | 9 | 4.0 | 6.0 | 0.00 | 0.07 | 0.07 | 1010.3 | |
| 20260506100953 | 0 | 20 | 6.0 | 7.0 | 0.00 | 0.07 | 0.07 | 1010.4 | |
| 20260506100451 | 0 | 19 | 5.0 | 5.0 | 0.00 | 0.07 | 0.07 | 1010.4 | |
| 20260506095949 | 0 | 20 | 3.0 | 9.0 | 0.00 | 0.07 | 0.07 | 1010.1 | |
| 20260506095447 | 0 | 27 | 6.0 | 6.0 | 0.00 | 0.07 | 0.07 | 1010.6 | |
| 20260506094943 | 0 | 23 | 6.0 | 11.0 | 0.02 | 0.07 | 0.07 | 1010.2 | |
| 20260506094442 | 0 | 31 | 9.0 | 10.0 | 0.02 | 0.07 | 0.07 | 1010.4 | |
| 20260506093939 | 0 | 4 | 2.0 | 4.0 | 0.00 | 0.07 | 0.07 | 1010.8 | |
| 20260506093437 | 0 | 31 | 7.0 | 10.0 | 0.05 | 0.07 | 0.07 | 1010.3 | |
| 20260506092934 | 0 | 45 | 7.0 | 11.0 | 0.31 | 0.07 | 0.07 | 1010.4 | |
| 20260506092432 | 0 | 47 | 6.0 | 8.0 | 0.26 | 0.06 | 0.06 | 1010.7 | |
| 20260506091928 | 0 | 275 | 3.0 | 6.0 | 0.00 | 0.02 | 0.02 | 1011.9 | |
| 20260506091427 | 0 | 21 | 4.0 | 8.0 | 0.00 | 0.02 | 0.02 | 1010.4 | |
| 20260506090924 | 0 | 35 | 10.0 | 15.0 | 0.00 | 0.02 | 0.02 | 1010.0 | |
| 20260506090421 | 0 | 21 | 4.0 | 5.0 | 0.00 | 0.02 | 0.02 | 1010.7 | |
| 20260506085918 | 0 | 27 | 7.0 | 12.0 | 0.00 | 0.02 | 0.02 | 1010.4 | |
| 20260506085414 | 0 | 36 | 6.0 | 8.0 | 0.00 | 0.02 | 0.02 | 1010.7 | |
| 20260506084911 | 0 | 0 | 4.0 | 6.0 | 0.00 | 0.02 | 0.02 | 1010.6 | |
| 20260506084408 | 0 | 13 | 3.0 | 9.0 | 0.00 | 0.02 | 0.02 | 1010.2 | |
| 20260506083904 | 0 | 18 | 4.0 | 14.0 | 0.00 | 0.02 | 0.02 | 1010.4 | |
| 20260506083401 | 0 | 29 | 11.0 | 13.0 | 0.00 | 0.02 | 0.02 | 1010.4 | |
| 20260506082859 | 0 | 351 | 2.0 | 5.0 | 0.00 | 0.02 | 0.02 | 1010.8 | |
| 20260506082355 | 0 | 36 | 4.0 | 11.0 | 0.00 | 0.02 | 0.02 | 1010.3 | |
| 20260506081851 | 0 | 17 | 5.0 | 8.0 | 0.00 | 0.02 | 0.02 | 1010.4 | |
| 20260506081350 | 0 | 21 | 4.0 | 6.0 | 0.00 | 0.02 | 0.02 | 1010.4 | |
| 20260506080847 | 0 | 17 | 5.0 | 6.0 | 0.00 | 0.02 | 0.02 | 1010.5 | |
| 20260506080343 | 0 | 17 | 4.0 | 4.0 | 0.00 | 0.02 | 0.02 | 1010.8 | |
| 20260506073328 | 0 | 39 | 4.0 | 4.0 | 0.05 | 0.01 | 0.01 | 1010.5 | |
| 20260506072824 | 0 | 259 | 4.0 | 8.0 | 0.00 | 0.00 | 0.00 | 1011.3 | |
| 20260506072322 | 0 | 29 | 3.0 | 6.0 | 0.00 | 0.00 | 0.00 | 1009.8 | |
| 20260506071820 | 0 | 20 | 2.0 | 3.0 | 0.00 | 0.00 | 0.00 | 1010.0 | |
| 20260506071317 | 0 | 27 | 3.0 | 3.0 | 0.00 | 0.00 | 0.00 | 1010.1 | |
| 20260506070814 | 0 | 344 | 2.0 | 3.0 | 0.00 | 0.00 | 0.00 | 1010.2 | |
| 20260506070311 | 0 | 44 | 0.0 | 3.0 | 0.00 | 0.00 | 0.00 | 1010.1 | |
| 20260506062248 | 0 | 16 | 0.0 | 3.0 | 0.00 | 0.00 | 0.00 | 1010.3 | |
| 20260506061744 | 0 | 143 | 2.0 | 3.0 | 0.00 | 0.00 | 0.00 | 1010.5 | |
| 20260506061241 | 0 | 311 | 3.0 | 5.0 | 0.00 | 0.00 | 0.00 | 1009.7 | |
| 20260506060740 | 0 | 350 | 0.0 | 2.0 | 0.00 | 0.00 | 0.00 | 1010.0 | |
| 20260506060237 | 0 | 329 | 1.0 | 3.0 | 0.00 | 0.00 | 0.00 | 1009.9 | |
| 20260506051203 | 0 | 246 | 2.0 | 5.0 | 0.00 | 0.00 | 0.00 | 1010.5 | |
| 20260506050701 | 0 | 199 | 4.0 | 7.0 | 0.00 | 0.00 | 0.00 | 1010.5 | |
| 20260506050158 | 0 | 184 | 6.0 | 7.0 | 0.00 | 0.00 | 0.00 | 1010.3 | |
| 20260506044649 | 0 | 183 | 3.0 | 3.0 | 0.00 | 0.00 | 0.00 | 1010.6 | |
| 20260506044145 | 0 | 153 | 1.0 | 4.0 | 0.00 | 0.00 | 0.00 | 1010.7 | |
| 20260506043643 | 0 | 68 | 3.0 | 6.0 | 0.00 | 0.00 | 0.00 | 1010.4 | |
| 20260506043141 | 0 | 137 | 0.0 | 4.0 | 0.00 | 0.00 | 0.00 | 1010.2 | |
| 20260506042640 | 0 | 81 | 4.0 | 5.0 | 0.00 | 0.00 | 0.00 | 1009.8 | |
| 20260506042137 | 0 | 113 | 4.0 | 6.0 | 0.00 | 0.00 | 0.00 | 1009.9 | |
| 20260506041636 | 0 | 127 | 3.0 | 5.0 | 0.00 | 0.00 | 0.00 | 1009.9 | |
| 20260506041132 | 0 | 128 | 4.0 | 6.0 | 0.00 | 0.00 | 0.00 | 1009.8 | |
| 20260506040630 | 0 | 121 | 4.0 | 8.0 | 0.00 | 0.00 | 0.00 | 1010.4 | |
| 20260506040126 | 0 | 82 | 4.0 | 6.0 | 0.00 | 0.00 | 0.00 | 1009.9 | |
| 20260506035623 | 0 | 87 | 5.0 | 6.0 | 0.02 | 0.11 | 0.11 | 1009.5 | |
| 20260506035120 | 0 | 74 | 5.0 | 7.0 | 0.02 | 0.11 | 0.11 | 1009.7 | |
| 20260506034617 | 0 | 49 | 6.0 | 9.0 | 0.00 | 0.10 | 0.10 | 1009.5 | |
| 20260506034114 | 0 | 99 | 3.0 | 6.0 | 0.00 | 0.10 | 0.10 | 1010.2 | |
| 20260506033611 | 0 | 105 | 5.0 | 8.0 | 0.00 | 0.10 | 0.10 | 1010.0 | |
| 20260506033108 | 0 | 97 | 8.0 | 10.0 | 0.02 | 0.10 | 0.10 | 1009.9 | |
| 20260506032606 | 0 | 123 | 4.0 | 7.0 | 0.07 | 0.10 | 0.10 | 1010.0 | |
| 20260506032102 | 0 | 104 | 6.0 | 6.0 | 0.12 | 0.10 | 0.10 | 1010.0 | |
| 20260506031600 | 0 | 47 | 2.0 | 3.0 | 0.05 | 0.09 | 0.09 | 1009.9 | |
| 20260506031056 | 0 | 28 | 2.0 | 5.0 | 0.00 | 0.08 | 0.08 | 1009.7 | |
| 20260506030555 | 0 | 31 | 5.0 | 7.0 | 0.00 | 0.08 | 0.08 | 1009.5 | |
| 20260506030052 | 0 | 27 | 4.0 | 6.0 | 0.00 | 0.08 | 0.08 | 1009.8 | |
| 20260506025549 | 0 | 25 | 4.0 | 5.0 | 0.00 | 0.08 | 0.08 | 1009.5 | |
| 20260506025044 | 0 | 303 | 5.0 | 9.0 | 0.00 | 0.08 | 0.08 | 1009.6 | |
| 20260506024542 | 0 | 299 | 1.0 | 3.0 | 0.00 | 0.08 | 0.08 | 1009.2 | |
| 20260506024038 | 0 | 173 | 2.0 | 6.0 | 0.00 | 0.08 | 0.08 | 1009.0 | |
| 20260506023534 | 0 | 178 | 4.0 | 5.0 | 0.00 | 0.08 | 0.08 | 1008.9 | |
| 20260506023032 | 0 | 164 | 5.0 | 7.0 | 0.00 | 0.08 | 0.08 | 1008.8 | |
| 20260506022529 | 0 | 166 | 4.0 | 5.0 | 0.00 | 0.08 | 0.08 | 1008.8 | |
| 20260506022027 | 0 | 157 | 4.0 | 8.0 | 0.00 | 0.08 | 0.08 | 1008.8 | |
| 20260506021524 | 0 | 156 | 7.0 | 9.0 | 0.00 | 0.08 | 0.08 | 1008.7 | |
| 20260506021021 | 0 | 154 | 5.0 | 7.0 | 0.00 | 0.08 | 0.08 | 1008.6 | |
| 20260506020519 | 0 | 157 | 5.0 | 7.0 | 0.00 | 0.08 | 0.08 | 1008.6 | |
| 20260506020016 | 0 | 159 | 7.0 | 8.0 | 0.00 | 0.08 | 0.08 | 1008.8 | |
| 20260506015513 | 0 | 157 | 5.0 | 9.0 | 0.00 | 0.08 | 0.08 | 1008.4 | |
| 20260506015010 | 0 | 133 | 9.0 | 9.0 | 0.00 | 0.08 | 0.08 | 1008.3 | |
| 20260506014508 | 0 | 123 | 5.0 | 6.0 | 0.00 | 0.08 | 0.08 | 1008.2 | |
| 20260506014003 | 0 | 145 | 4.0 | 5.0 | 0.00 | 0.08 | 0.08 | 1008.3 | |
| 20260506013501 | 0 | 143 | 3.0 | 5.0 | 0.00 | 0.08 | 0.08 | 1008.3 | |
| 20260506012957 | 0 | 166 | 4.0 | 4.0 | 0.00 | 0.08 | 0.08 | 1008.2 | |
| 20260506012454 | 0 | 214 | 2.0 | 4.0 | 0.00 | 0.08 | 0.08 | 1008.4 | |
| 20260506011951 | 0 | 235 | 3.0 | 5.0 | 0.00 | 0.08 | 0.08 | 1008.3 | |
| 20260506011448 | 0 | 227 | 3.0 | 4.0 | 0.00 | 0.08 | 0.08 | 1008.5 | |
| 20260506010945 | 0 | 209 | 2.0 | 4.0 | 0.00 | 0.08 | 0.08 | 1008.3 | |
| 20260506010444 | 0 | 203 | 2.0 | 5.0 | 0.00 | 0.08 | 0.08 | 1008.1 | |
| 20260506005939 | 0 | 131 | 4.0 | 8.0 | 0.00 | 0.08 | 0.08 | 1007.3 | |
| 20260506005438 | 0 | 110 | 7.0 | 10.0 | 0.00 | 0.08 | 0.08 | 1007.1 | |
| 20260506004932 | 0 | 153 | 8.0 | 9.0 | 0.00 | 0.08 | 0.08 | 1007.6 | |
| 20260506004431 | 0 | 169 | 6.0 | 7.0 | 0.00 | 0.08 | 0.08 | 1007.7 | |
| 20260506003926 | 0 | 165 | 5.0 | 6.0 | 0.00 | 0.08 | 0.08 | 1007.6 | |
| 20260506003423 | 0 | 158 | 5.0 | 6.0 | 0.00 | 0.08 | 0.08 | 1007.3 | |
| 20260506002920 | 0 | 155 | 5.0 | 6.0 | 0.00 | 0.08 | 0.08 | 1007.2 | |
| 20260506002416 | 0 | 155 | 6.0 | 8.0 | 0.00 | 0.08 | 0.08 | 1007.1 | |
| 20260506001911 | 0 | 154 | 6.0 | 8.0 | 0.00 | 0.08 | 0.08 | 1007.2 | |
| 20260506001409 | 0 | 156 | 8.0 | 11.0 | 0.00 | 0.08 | 0.08 | 1007.2 | |
| 20260506000906 | 0 | 152 | 10.0 | 11.0 | 0.00 | 0.08 | 0.08 | 1007.3 | |
| 20260506000403 | 0 | 159 | 7.0 | 11.0 | 0.00 | 0.08 | 0.08 | 1007.2 | |
| 20260505235900 | 0 | 156 | 9.0 | 11.0 | 0.00 | 0.08 | 0.08 | 1007.2 | |
| 20260505235358 | 0 | 146 | 6.0 | 8.0 | 0.00 | 0.08 | 0.08 | 1007.0 | |
| 20260505234854 | 0 | 149 | 6.0 | 8.0 | 0.00 | 0.08 | 0.08 | 1007.1 | |
| 20260505234352 | 0 | 142 | 6.0 | 8.0 | 0.00 | 0.08 | 0.08 | 1007.0 | |
| 20260505233849 | 0 | 134 | 6.0 | 7.0 | 0.00 | 0.08 | 0.08 | 1007.1 | |
| 20260505233347 | 0 | 157 | 5.0 | 5.0 | 0.00 | 0.08 | 0.08 | 1007.0 | |
| 20260505232844 | 0 | 177 | 4.0 | 6.0 | 0.00 | 0.08 | 0.08 | 1007.1 | |
| 20260505232342 | 0 | 183 | 4.0 | 4.0 | 0.00 | 0.08 | 0.08 | 1006.9 | |
| 20260505231838 | 0 | 191 | 4.0 | 7.0 | 0.00 | 0.08 | 0.08 | 1007.0 | |
| 20260505231336 | 0 | 176 | 5.0 | 7.0 | 0.00 | 0.08 | 0.08 | 1006.9 | |
| 20260505230834 | 0 | 182 | 5.0 | 7.0 | 0.00 | 0.08 | 0.08 | 1006.8 | |
| 20260505230330 | 0 | 185 | 6.0 | 8.0 | 0.00 | 0.08 | 0.08 | 1006.7 | |
| 20260505225827 | 0 | 168 | 6.0 | 9.0 | 0.00 | 0.08 | 0.08 | 1006.7 | |
| 20260505225325 | 0 | 178 | 7.0 | 10.0 | 0.00 | 0.08 | 0.08 | 1006.9 | |
| 20260505224819 | 0 | 175 | 7.0 | 9.0 | 0.00 | 0.08 | 0.08 | 1006.7 | |
| 20260505224318 | 0 | 180 | 8.0 | 11.0 | 0.00 | 0.08 | 0.08 | 1006.9 | |
| 20260505223814 | 0 | 183 | 9.0 | 10.0 | 0.00 | 0.08 | 0.08 | 1006.8 | |
| 20260505223312 | 0 | 183 | 9.0 | 10.0 | 0.00 | 0.08 | 0.08 | 1006.9 | |
| 20260505222807 | 0 | 185 | 9.0 | 10.0 | 0.00 | 0.08 | 0.08 | 1006.8 | |
| 20260505222305 | 0 | 188 | 6.0 | 9.0 | 0.00 | 0.08 | 0.08 | 1006.8 | |
| 20260505221801 | 0 | 162 | 10.0 | 11.0 | 0.00 | 0.08 | 0.08 | 1006.3 | |
| 20260505221257 | 0 | 183 | 6.0 | 13.0 | 0.00 | 0.08 | 0.08 | 1006.5 | |
| 20260505220754 | 0 | 167 | 10.0 | 13.0 | 0.00 | 0.08 | 0.08 | 1006.7 | |
| 20260505220252 | 0 | 176 | 9.0 | 11.0 | 0.00 | 0.08 | 0.08 | 1006.8 | |
| 20260505215750 | 0 | 200 | 7.0 | 13.0 | 0.00 | 0.08 | 0.08 | 1006.6 | |
| 20260505215247 | 0 | 186 | 10.0 | 15.0 | 0.00 | 0.08 | 0.08 | 1006.7 | |
| 20260505214745 | 0 | 162 | 13.0 | 14.0 | 0.00 | 0.08 | 0.08 | 1006.6 | |
| 20260505214242 | 0 | 178 | 10.0 | 12.0 | 0.00 | 0.08 | 0.08 | 1006.6 | |
| 20260505213739 | 0 | 169 | 10.0 | 13.0 | 0.00 | 0.08 | 0.08 | 1006.2 | |
| 20260505213236 | 0 | 180 | 8.0 | 16.0 | 0.00 | 0.08 | 0.08 | 1006.2 | |
| 20260505212732 | 0 | 169 | 11.0 | 15.0 | 0.00 | 0.08 | 0.08 | 1006.3 | |
| 20260505212230 | 0 | 184 | 6.0 | 14.0 | 0.00 | 0.08 | 0.08 | 1006.1 |